This is the latest recevied weather packets stored in our database for station/object KG4ZVW. If no packets are shown the sender has not sent any weather packets the latest 10 day(s).
| Time | Temp. | Humidity | Pressure | Rain* | Wind** | Luminosity | Snow |
|---|---|---|---|---|---|---|---|
| 1777991921 | 27.22° C | 61% | 1015.6 hPa | 0 mm | - | 724 W/m² | - |
| 1777991615 | 27.22° C | 59% | 1015.6 hPa | 0 mm | - | 717 W/m² | - |
| 1777991310 | 27.22° C | 61% | 1015.6 hPa | 0 mm | - | 703 W/m² | - |
| 1777991006 | 27.22° C | 60% | 1015.8 hPa | 0 mm | - | 686 W/m² | - |
| 1777990701 | 27.22° C | 61% | 1015.8 hPa | 0 mm | - | 693 W/m² | - |
| 1777990420 | 27.22° C | 64% | 1015.8 hPa | 0 mm | - | 679 W/m² | - |
| 1777989808 | 26.67° C | 64% | 1015.9 hPa | 0 mm | - | 636 W/m² | - |
| 1777989504 | 26.67° C | 61% | 1015.9 hPa | 0 mm | - | 633 W/m² | - |
| 1777989220 | 26.11° C | 60% | 1015.9 hPa | 0 mm | - | 591 W/m² | - |
| 1777988916 | 26.11° C | 61% | 1015.9 hPa | 0 mm | - | 638 W/m² | - |
| 1777988609 | 26.11° C | 64% | 1015.9 hPa | 0 mm | - | 244 W/m² | - |
| 1777988304 | 26.67° C | 65% | 1015.6 hPa | 0 mm | - | 364 W/m² | - |
| 1777988019 | 26.67° C | 65% | 1015.6 hPa | 0 mm | - | 647 W/m² | - |
| 1777987713 | 26.67° C | 65% | 1015.6 hPa | 0 mm | - | 496 W/m² | - |
| 1777987409 | 26.11° C | 67% | 1015.5 hPa | 0 mm | - | 613 W/m² | - |
| 1777987104 | 26.11° C | 68% | 1015.5 hPa | 0 mm | - | 541 W/m² | - |
| 1777986800 | 26.11° C | 68% | 1015.5 hPa | 0 mm | - | 517 W/m² | - |
| 1777986518 | 25.56° C | 69% | 1015.5 hPa | 0 mm | - | 485 W/m² | - |
| 1777986213 | 25.56° C | 70% | 1015.5 hPa | 0 mm | - | 468 W/m² | - |
| 1777985912 | 25.56° C | 70% | 1015.5 hPa | 0 mm | - | 487 W/m² | - |
| 1777985605 | 25.56° C | 70% | 1015.4 hPa | 0 mm | - | 227 W/m² | - |
| 1777985321 | 25.56° C | 69% | 1015.4 hPa | 0 mm | - | 396 W/m² | - |
| 1777985016 | 25° C | 70% | 1015.4 hPa | 0 mm | - | 452 W/m² | - |
| 1777984711 | 25° C | 71% | 1015.3 hPa | 0 mm | - | 429 W/m² | - |
| 1777984406 | 24.44° C | 74% | 1015.3 hPa | 0 mm | - | 367 W/m² | - |
* Rain latest hour (hover to see other rain measurements)
** Current wind speed in m/s (hover to see current wind gust speed)